Barrow, AK

3:17 AM AKST on February 11, 2016 (GMT -0900)
Nuiqsut

Weather History for PAQT - February, 2014

Change the Weather History Date:

Friday, February 28, 2014

  Actual Average (PAKU) Record (PAKU)
Temperature  
Mean Temperature 4 °F -  
Max Temperature 9 °F -8 °F 33 °F (1989)
Min Temperature -2 °F -17 °F -51 °F (1986)
Degree Days  
Heating Degree Days 62    
Moisture  
Dew Point 0 °F    
Average Humidity 89    
Maximum Humidity 92    
Minimum Humidity 83    
Precipitation  
Precipitation 0.00 in - - ()
Sea Level Pressure  
Sea Level Pressure 29.97 in    
Wind  
Wind Speed 12 mph (SE)    
Max Wind Speed 16 mph    
Max Gust Speed -    
Visibility 9 miles    
Events      
Averages and records for this station are not official NWS values.
T = Trace of Precipitation, MM = Missing Value Source: NWS Daily Summary

Daily Weather History Graph

Daily Weather History Graph

Search for Another Location

Airport or City:

Trip Planner

Search our weather history database for the weather conditions in past years. The results will help you decide how hot, cold, wet, or windy it might be!

Date:

Astronomy

Feb. 28, 2014 Rise Set
Actual Time 8:35 AM AKST 5:59 PM AKST
Civil Twilight 7:32 AM AKST 7:02 PM AKST
Nautical Twilight 6:21 AM AKST 8:13 PM AKST
Astronomical Twilight 5:06 AM AKST 9:29 PM AKST
Moon 7:57 AM AKST (2/28) 6:02 PM AKST (2/28)
Length of Visible Light 11h 29m
Length of Day
9h 24m
Waning Crescent, 0% of the Moon is Illuminated
Feb 28
Waning Crescent
Feb 28
New
Mar 8
First Quarter
Mar 16
Full
Mar 23
Last Quarter

Hourly Weather History & Observations

Time (AKST) Temp. Windchill Dew Point Humidity Pressure Visibility Wind Dir Wind Speed Gust Speed Precip Events Conditions
12:19 AM -0.0 °F -18.7 °F -2.9 °F 88% 30.00 in 5.0 mi ENE 13.8 mph - N/A   Scattered Clouds
12:53 AM 1.0 °F -18.7 °F -2.0 °F 87% 30.00 in 6.0 mi ENE 16.1 mph - N/A   Partly Cloudy
1:53 AM 1.9 °F -17.5 °F -0.9 °F 88% 29.98 in 6.0 mi ENE 16.1 mph - N/A   Clear
2:31 AM 1.9 °F -14.7 °F -0.0 °F 91% 29.98 in 6.0 mi ENE 11.5 mph - N/A   Partly Cloudy
2:50 AM 1.4 °F -17.6 °F -0.4 °F 92% 29.97 in 4.0 mi ENE 15.0 mph - N/A   Mostly Cloudy
2:53 AM 1.9 °F -16.2 °F -0.0 °F 91% 29.97 in 4.0 mi ENE 13.8 mph - N/A   Mostly Cloudy
3:53 AM 3.9 °F -13.0 °F 1.9 °F 91% 29.96 in 4.0 mi East 12.7 mph - N/A   Mostly Cloudy
4:43 AM 3.9 °F -13.0 °F 1.9 °F 91% 29.94 in 8.0 mi ENE 12.7 mph - N/A   Scattered Clouds
4:53 AM 3.9 °F -12.2 °F 1.9 °F 91% 29.95 in 9.0 mi East 11.5 mph - N/A   Partly Cloudy
5:53 AM 3.9 °F -11.3 °F 1.0 °F 88% 29.94 in 10.0 mi East 10.4 mph - N/A   Clear
6:53 AM 3.0 °F -12.5 °F 1.0 °F 91% 29.93 in 10.0 mi ENE 10.4 mph - N/A   Partly Cloudy
7:53 AM 1.9 °F -12.9 °F -0.9 °F 88% 29.92 in 10.0 mi ENE 9.2 mph - N/A   Clear
8:53 AM -0.0 °F -15.3 °F -2.9 °F 88% 29.92 in 10.0 mi East 9.2 mph - N/A   Clear
9:53 AM -0.9 °F -15.3 °F -4.0 °F 87% 29.91 in 10.0 mi East 8.1 mph - N/A   Clear
10:53 AM -0.9 °F -11.0 °F -4.0 °F 87% 29.92 in 10.0 mi ESE 4.6 mph - N/A   Clear
11:53 AM -2.0 °F -12.2 °F -4.0 °F 91% 29.94 in 10.0 mi SSW 4.6 mph - N/A   Clear
12:53 PM -0.0 °F -14.2 °F -4.0 °F 83% 29.94 in 9.0 mi South 8.1 mph - N/A   Clear
1:53 PM -0.0 °F -13.0 °F -4.0 °F 83% 29.95 in 10.0 mi SSW 6.9 mph - 0.00 in   Clear
2:53 PM -0.0 °F -16.3 °F -2.9 °F 88% 29.96 in 10.0 mi SSW 10.4 mph - 0.00 in   Clear
3:53 PM 1.9 °F -13.8 °F -0.9 °F 88% 29.97 in 10.0 mi South 10.4 mph - N/A   Clear
4:53 PM 5.0 °F -11.6 °F 1.9 °F 87% 29.98 in 10.0 mi SSW 12.7 mph - 0.00 in   Clear
5:53 PM 7.0 °F -9.1 °F 3.9 °F 87% 29.99 in 10.0 mi SSW 12.7 mph - N/A   Clear
6:53 PM 9.0 °F -8.5 °F 6.1 °F 88% 30.00 in 10.0 mi South 16.1 mph - N/A   Clear
7:53 PM 9.0 °F -7.3 °F 7.0 °F 92% 30.02 in 10.0 mi SSW 13.8 mph - N/A   Clear
8:53 PM 8.1 °F -7.7 °F 6.1 °F 92% 30.04 in 10.0 mi South 12.7 mph - N/A   Clear
9:53 PM 7.0 °F -10.4 °F 5.0 °F 92% 30.06 in 10.0 mi South 15.0 mph - N/A   Clear
10:53 PM 8.1 °F -9.0 °F 3.9 °F 83% 30.07 in 10.0 mi SSW 15.0 mph - N/A   Clear
11:53 PM 7.0 °F -9.8 °F 5.0 °F 92% 30.08 in 10.0 mi South 13.8 mph - N/A   Clear